Retour au catalogue

ELISA W11

ActifMilitaireSSO
NORAD 38007·PAYLOAD·🇫🇷 France

Lancé Dec 17, 2011 depuis Guiana Space Centre

Loading…

Prochains Passages (prochaines 24 heures)

TLE

FraisSource: Space-Track

Époque: Sep 14, 2026, 14:36 UTC

1 38007U 11076A   26257.60900554  .00000313  00000-0  50454-4 0  9993
2 38007  97.7729 250.7194 0001471  81.4650 278.6728 14.77710954789960

Suivez ELISA W11 en temps réel avec AllMySat

Download on the App Store